• In Belarus
  • List of Countries
  • For 7 days
  • Water Temperature
  • Satellite Maps
  • Weather Map
  • Weather Widgets
  • user-avatar
    Login

    Hourly Weather Porto

    Today, 20 August, Monday

    Time Temperature Precipitation Wind Pressure Humidity
    00:00 +26°C° 0 mm 3 mps 756 mmHg 29%
    01:00 +26°C° 0 mm 4 mps 756 mmHg 33%
    02:00 +26°C° 0 mm 4 mps 756 mmHg 37%
    03:00 +25°C° 0 mm 4 mps 756 mmHg 39%
    04:00 +25°C° 0 mm 4 mps 756 mmHg 42%
    05:00 +23°C° 0 mm 4 mps 756 mmHg 45%
    06:00 +26°C° 0 mm 3 mps 756 mmHg 41%
    07:00 +28°C° 0 mm 3 mps 756 mmHg 38%
    08:00 +30°C° 0 mm 3 mps 757 mmHg 34%
    09:00 +34°C° 0 mm 3 mps 756 mmHg 30%
    10:00 +36°C° 0 mm 3 mps 756 mmHg 26%
    11:00 +38°C° 0 mm 2 mps 756 mmHg 22%
    12:00 +39°C° 0 mm 3 mps 756 mmHg 21%
    13:00 +40°C° 0 mm 3 mps 755 mmHg 20%
    14:00 +41°C° 0 mm 4 mps 755 mmHg 19%
    15:00 +40°C° 0 mm 4 mps 755 mmHg 21%
    16:00 +38°C° 0 mm 4 mps 754 mmHg 24%
    17:00 +37°C° 0 mm 4 mps 754 mmHg 26%
    18:00 +34°C° 0 mm 4 mps 754 mmHg 29%
    19:00 +31°C° 0 mm 3 mps 755 mmHg 31%
    20:00 +29°C° 0 mm 3 mps 755 mmHg 34%
    21:00 +29°C° 0 mm 3 mps 755 mmHg 33%
    22:00 +28°C° 0 mm 2 mps 755 mmHg 33%
    23:00 +28°C° 0 mm 2 mps 755 mmHg 32%

    Tomorrow, 21 August, Tuesday

    Time Temperature Precipitation Wind Pressure Humidity
    00:00 +27°C° 0 mm 2 mps 754 mmHg 33%
    01:00 +27°C° 0 mm 2 mps 754 mmHg 33%
    02:00 +27°C° 0 mm 2 mps 754 mmHg 34%
    03:00 +26°C° 0 mm 2 mps 754 mmHg 37%
    04:00 +26°C° 0 mm 2 mps 754 mmHg 39%
    05:00 +25°C° 0 mm 2 mps 754 mmHg 42%
    06:00 +27°C° 0 mm 2 mps 754 mmHg 39%
    07:00 +29°C° 0 mm 2 mps 754 mmHg 36%
    08:00 +32°C° 0 mm 2 mps 754 mmHg 32%
    09:00 +35°C° 0 mm 2 mps 754 mmHg 28%
    10:00 +37°C° 0 mm 2 mps 754 mmHg 24%
    11:00 +40°C° 0 mm 2 mps 754 mmHg 20%
    12:00 +40°C° 0 mm 2 mps 754 mmHg 20%
    13:00 +39°C° 0 mm 3 mps 753 mmHg 20%
    14:00 +39°C° 0 mm 3 mps 753 mmHg 20%
    15:00 +38°C° 0 mm 3 mps 753 mmHg 23%
    16:00 +36°C° 0 mm 3 mps 753 mmHg 26%
    17:00 +35°C° 0 mm 3 mps 753 mmHg 29%
    18:00 +32°C° 0 mm 2 mps 753 mmHg 33%
    19:00 +30°C° 0 mm 2 mps 753 mmHg 37%
    20:00 +28°C° 0 mm 1 mps 754 mmHg 42%
    21:00 +27°C° 0 mm 1 mps 754 mmHg 42%
    22:00 +27°C° 0 mm 1 mps 754 mmHg 43%
    23:00 +24°C° 0 mm 0 mps 754 mmHg 43%

    Day after tomorrow, 22 August, Wednesday

    Time Temperature Precipitation Wind Pressure Humidity
    00:00 +26°C° 0 mm 1 mps 754 mmHg 43%
    01:00 +26°C° 0 mm 1 mps 753 mmHg 43%
    02:00 +26°C° 0 mm 1 mps 753 mmHg 44%
    03:00 +25°C° 0 mm 1 mps 753 mmHg 44%
    04:00 +25°C° 0 mm 1 mps 753 mmHg 45%
    05:00 +25°C° 0 mm 1 mps 753 mmHg 46%
    06:00 +27°C° 0 mm 1 mps 754 mmHg 41%
    07:00 +28°C° 0 mm 0 mps 754 mmHg 36%
    08:00 +31°C° 0 mm 0 mps 754 mmHg 32%
    09:00 +34°C° 0 mm 1 mps 754 mmHg 29%
    10:00 +36°C° 0 mm 1 mps 754 mmHg 26%
    11:00 +38°C° 0 mm 2 mps 754 mmHg 23%
    12:00 +38°C° 0 mm 3 mps 754 mmHg 23%
    13:00 +38°C° 0 mm 3 mps 754 mmHg 24%
    14:00 +37°C° 0 mm 3 mps 754 mmHg 24%
    15:00 +36°C° 0 mm 3 mps 754 mmHg 28%
    16:00 +35°C° 0 mm 3 mps 754 mmHg 31%
    17:00 +33°C° 0 mm 3 mps 754 mmHg 35%
    18:00 +30°C° 0 mm 2 mps 754 mmHg 40%
    19:00 +28°C° 0 mm 2 mps 755 mmHg 45%
    20:00 +26°C° 0 mm 1 mps 755 mmHg 49%
    21:00 +26°C° 0 mm 1 mps 755 mmHg 50%
    22:00 +26°C° 0 mm 1 mps 755 mmHg 50%
    23:00 +26°C° 0 mm 1 mps 755 mmHg 50%

    23 August, Thursday

    Time Temperature Precipitation Wind Pressure Humidity
    00:00 +25°C° 0 mm 1 mps 755 mmHg 51%
    01:00 +25°C° 0 mm 1 mps 755 mmHg 52%
    02:00 +25°C° 0 mm 2 mps 754 mmHg 52%
    03:00 +24°C° 0 mm 2 mps 755 mmHg 54%
    04:00 +24°C° 0 mm 2 mps 755 mmHg 56%
    05:00 +24°C° 0 mm 2 mps 755 mmHg 58%
    06:00 +26°C° 0 mm 2 mps 755 mmHg 52%
    07:00 +29°C° 0 mm 2 mps 755 mmHg 46%
    08:00 +31°C° 0 mm 2 mps 755 mmHg 40%
    09:00 +34°C° 0 mm 3 mps 755 mmHg 37%
    10:00 +35°C° 0 mm 4 mps 755 mmHg 34%
    11:00 +36°C° 0 mm 5 mps 755 mmHg 31%
    12:00 +36°C° 0 mm 5 mps 755 mmHg 31%
    13:00 +36°C° 0 mm 6 mps 755 mmHg 32%
    14:00 +36°C° 0 mm 7 mps 755 mmHg 32%
    15:00 +35°C° 0 mm 7 mps 755 mmHg 36%
    16:00 +34°C° 0 mm 7 mps 755 mmHg 40%
    17:00 +32°C° 0 mm 6 mps 755 mmHg 45%
    18:00 +29°C° 0 mm 6 mps 755 mmHg 52%
    19:00 +27°C° 0 mm 6 mps 756 mmHg 59%
    20:00 +25°C° 0 mm 5 mps 756 mmHg 66%
    21:00 +25°C° 0 mm 5 mps 756 mmHg 68%
    22:00 +23°C° 0 mm 5 mps 756 mmHg 70%
    23:00 +23°C° 0 mm 5 mps 756 mmHg 73%

    24 August, Friday

    Time Temperature Precipitation Wind Pressure Humidity
    00:00 +22°C° 0 mm 5 mps 756 mmHg 73%
    01:00 +22°C° 0 mm 5 mps 756 mmHg 74%
    02:00 +22°C° 0 mm 6 mps 756 mmHg 74%
    03:00 +21°C° 0 mm 6 mps 756 mmHg 74%
    04:00 +21°C° 0 mm 6 mps 756 mmHg 75%
    05:00 +21°C° 0 mm 6 mps 756 mmHg 75%
    06:00 +23°C° 0 mm 6 mps 756 mmHg 68%
    07:00 +26°C° 0 mm 6 mps 757 mmHg 61%
    08:00 +28°C° 0 mm 6 mps 757 mmHg 54%
    09:00 +30°C° 0 mm 6 mps 757 mmHg 49%
    10:00 +32°C° 0 mm 6 mps 757 mmHg 43%
    11:00 +34°C° 0 mm 7 mps 756 mmHg 38%
    12:00 +35°C° 0 mm 7 mps 756 mmHg 35%
    13:00 +35°C° 0 mm 8 mps 756 mmHg 32%
    14:00 +35°C° 0 mm 9 mps 756 mmHg 29%
    15:00 +34°C° 0 mm 9 mps 756 mmHg 30%
    16:00 +33°C° 0 mm 9 mps 756 mmHg 30%
    17:00 +32°C° 0 mm 9 mps 756 mmHg 30%
    18:00 +29°C° 0 mm 9 mps 756 mmHg 34%
    19:00 +27°C° 0 mm 8 mps 757 mmHg 37%
    20:00 +24°C° 0 mm 8 mps 757 mmHg 40%
    21:00 +23°C° 0 mm 8 mps 757 mmHg 42%
    22:00 +22°C° 0 mm 8 mps 758 mmHg 44%
    23:00 +21°C° 0 mm 7 mps 758 mmHg 45%

    25 August, Saturday

    Time Temperature Precipitation Wind Pressure Humidity
    00:00 +21°C° 0 mm 7 mps 758 mmHg 48%
    01:00 +20°C° 0 mm 7 mps 758 mmHg 51%
    02:00 +20°C° 0 mm 7 mps 757 mmHg 53%
    03:00 +18°C° 0 mm 7 mps 758 mmHg 56%
    04:00 +19°C° 0 mm 6 mps 758 mmHg 58%
    05:00 +17°C° 0 mm 6 mps 758 mmHg 60%
    06:00 +20°C° 0 mm 6 mps 758 mmHg 55%
    07:00 +21°C° 0 mm 6 mps 758 mmHg 50%
    08:00 +23°C° 0 mm 6 mps 758 mmHg 45%
    09:00 +26°C° 0 mm 6 mps 758 mmHg 39%
    10:00 +28°C° 0 mm 6 mps 757 mmHg 34%
    11:00 +30°C° 0 mm 6 mps 757 mmHg 28%
    12:00 +32°C° 0 mm 6 mps 757 mmHg 26%
    13:00 +32°C° 0 mm 6 mps 756 mmHg 24%
    14:00 +33°C° 0 mm 7 mps 756 mmHg 22%
    15:00 +32°C° 0 mm 7 mps 756 mmHg 24%
    16:00 +32°C° 0 mm 7 mps 755 mmHg 26%
    17:00 +30°C° 0 mm 7 mps 755 mmHg 29%
    18:00 +28°C° 0 mm 7 mps 756 mmHg 32%
    19:00 +26°C° 0 mm 6 mps 756 mmHg 35%
    20:00 +23°C° 0 mm 6 mps 756 mmHg 39%
    21:00 +22°C° 0 mm 6 mps 756 mmHg 40%
    22:00 +22°C° 0 mm 6 mps 756 mmHg 41%
    23:00 +21°C° 0 mm 5 mps 756 mmHg 43%
    Show more